Showing default

DEMO8(TENZING), 48951

Orbit data source: Space-Track

DEMO8(TENZING), 48951 is an American payload satellite in SSO that was launched on Wed, 30 Jun 2021 UTC via an FALCON 9 launch vehicle from the Air Force Eastern Test Range (AFETR). Payload-class satellites include a variety of spacecraft equipped with specific instruments for various scientific and technological missions. These include communications satellites like Starlink; space stations such as the ISS; scientific satellites like the Hubble; Earth observation satellites from companies like Planet Labs, Umbra, and HawkEye 360; GPS; miniature CubeSats for education and research; and military/defense satellites.

Loading next visibility...
Identifier
48951, 2021-059CA
Orbit
SSO
Country
Flag of USUS
Related business
Manufacturer
Astro Digital
Mission
Operational Commercial Technology
Bus & Motor
CORVUS-XL, Unknown motor
Mass
35 kg wet, 35 kg dry
Launch date (UTC)
2021-06-30 (5 years ago)
Launch vehicle
FALCON 9
Launch site
Air Force Eastern Test Range (AFETR)
Object type
Payload
Rocket body
Debris
Shape & HBR
Box + 1 Pan, 0.3 m
Radar Cross Section
0.375 m², Medium (>0.1 m² and < 1m²)

Expand to show TLE details & history
Last TLE update: 6 hours ago

TLE from 6 hours ago
0 DEMO8(TENZING)
1 48951U 21059CA  26095.45920563  .00025663  00000-0  42313-3 0  9998
2 48951  97.7050 283.4862 0006413 245.4831 114.5752 15.52269014266016
Epoch: 2026-04-05T11:01Z
TLE epoch observation values (Epoch: 2026-04-05T11:01:15.366Z)
Latitude
-0.00006°
Longitude
-75.59214°
Altitude
415.041 km
Speed
7.661 km/s
True Right ascension
18h 53m 56s
True Declination
0° 00' 00"
Sunlit
Object was in daylight at epoch
Visualization orbit readout
Latitude
Unknown
Longitude
Unknown
Altitude
Unknown
Speed
Unknown
Apparent Right ascension
Unknown
Apparent Declination
Unknown
Sunlit
N/A
Visualization observer readout
Local Sidereal Time
23:15:21
Azimuth
Unknown
Elevation
Unknown
Doppler factor
Unknown
Orbital elements
Apogee altitude
411.39 km
Perigee altitude
402.688 km
Semi-major axis
6,785.176 km
Eccentricity
0.00064
Inclination
97.705°
RAAN
283.4862°
Arg. of periapsis
245.4831°
True anomaly
114.64201°
Mean anomaly
114.5752°
Eccentric anomaly
114.60861°
Mean motion
3.8833 °/min
Orbital period
92.7 mins
BSTAR
0.00042313
Loading maneuver chart data...
Computing Atmospheric mass density...

Documentation

Showing up to 5 results
|